Погода в Турунче

Турция     36°46′20″N   28°14′24″E
темп.,
°C
ветер,
м/с
пор.,
м/с
влажн.,
%
обл.,
%
осадки,
мм/ч
давл.,
гПа
погр.,
м
12 августа, пт
пт1200:00+26зсз127018 0.0 100643
03:00+26всв11670 0.0 100628
06:00+25св11640 0.0 100655
09:00+29ююв00480 0.0 1007203
12:00+31юз32510 0.0 1007625
15:00+32зюз66480 0.0 1006494
18:00+30з55524 0.0 1006303
21:00+26з34690 0.0 1007140
13 августа, сб
сб1300:00+25зсз337042 0.0 1007122
03:00+25зсз237438 0.0 1005111
06:00+25сз33700 0.0 1004103
09:00+28зсз23530 0.0 1005207
12:00+31з67430 0.0 1005436
15:00+30з812460 0.0 1004456
18:00+28зсз811540 0.0 1004415
21:00+25зсз67670 0.0 1004242
14 августа, вс
вс1400:00+24сз56750 0.0 1004195
03:00+24зсз56730 0.0 1003175
06:00+23сз44700 0.0 1003132
09:00+27зсз34510 0.0 1003332
12:00+31з44460 0.0 1003379
15:00+31з79430 0.0 1003444
18:00+29з811480 0.0 1003519
21:00+26зсз48650 0.0 1004353
15 августа, пн
пн1500:00+24зсз45680 0.0 1004206
03:00+23зсз45740 0.0 1004254
06:00+22сз22780 0.0 1005125
09:00+26з12570 0.0 1006359
12:00+30зюз44460 0.0 1006566
15:00+30з78490 0.0 1006596
18:00+29з69510 0.0 1006402
21:00+25зсз56630 0.0 1008198
16 августа, вт
вт1600:00+24сз33660 0.0 1008121
03:00+24сз33680 0.0 1008110
06:00+23сз22680 0.0 100898
09:00+27зсз22490 0.0 1009333
12:00+31зюз43450 0.0 1009426
15:00+31з66430 0.0 1008432
18:00+29з56520 0.0 1008267
21:00+26зсз44680 0.0 1008101